STARLINK-38014, 69721

Orbit data source: Space-Track

STARLINK-38014, 69721 is a payload satellite owned by SpaceX/Seattle (US) in SSO that was launched on Sun, 28 Jun 2026 UTC via an FALCON 9 launch vehicle from the Air Force Western Test Range (AFWTR). Payload-class satellites include a variety of spacecraft equipped with specific instruments for various scientific and technological missions. These include communications satellites like Starlink; space stations such as the ISS; scientific satellites like the Hubble; Earth observation satellites from companies like Planet Labs, Umbra, and HawkEye 360; GPS; miniature CubeSats for education and research; and military/defense satellites.

Loading next visibility...
Identifier
69721, 2026-147T
Orbit
SSO
Country
Flag of USUS
Related business
Manufacturer
SpaceX/Seattle
Mission
Operational Commercial Communications
Bus & Motor
STARLINK V2MO, Unknown motor
Mass
575 kg wet, ~530 kg dry
Launch date (UTC)
2026-06-28 (2 months ago)
Launch vehicle
FALCON 9
Launch site
Air Force Western Test Range (AFWTR)
Object type
Payload
Rocket body
Debris
Shape & HBR
Box + 1 Pan, 17.7 m
Radar Cross Section
41.120 m², Large (>1 m²)

Expand to show TLE details & history
Last TLE update: 1 day ago

TLE from 1 day ago
0 STARLINK-38014
1 69721U 26147T   26236.07752280  .00022663  00000-0  70156-3 0  9996
2 69721  97.2836 272.8689 0002735 115.8036 244.3490 15.33471218 10030
Epoch: 2026-08-24T01:51Z
TLE epoch observation values (Epoch: 2026-08-24T01:51:37.969Z)
Latitude
0.00003°
Longitude
-87.40371°
Altitude
469.388 km
Speed
7.631 km/s
True Right ascension
18h 11m 28s
True Declination
0° 00' 00"
Sunlit
Object was in full shadow at epoch
Visualization orbit readout
Latitude
Unknown
Longitude
Unknown
Altitude
Unknown
Speed
Unknown
Apparent Right ascension
Unknown
Apparent Declination
Unknown
Sunlit
N/A
Visualization observer readout
Local Sidereal Time
01:56:21
Azimuth
Unknown
Elevation
Unknown
Doppler factor
Unknown
Orbital elements
Apogee altitude
464.279 km
Perigee altitude
460.537 km
Semi-major axis
6,840.545 km
Eccentricity
0.00027
Inclination
97.2836°
RAAN
272.8689°
Arg. of periapsis
115.8036°
True anomaly
244.32075°
Mean anomaly
244.349°
Eccentric anomaly
244.33488°
Mean motion
3.83625 °/min
Orbital period
93.84 mins
BSTAR
0.00070156
Loading maneuver chart data...
Computing Atmospheric mass density...
Loading historical data...
Loading historical data...
Loading historical data...
Loading historical data...
Loading historical data...
Loading historical data...
Loading historical data...

Documentation

Showing up to 5 results
|